Weather reports worldwide

Advertisment
S. Maria Di Leuca, Italy (16360): temperature & dewpoint: 16.09.2018 23:00:00 - 22.09.2018 23:00:00 (CEST)S. Maria Di Leuca, Italy (16360): wind speed: 16.09.2018 23:00:00 - 22.09.2018 23:00:00 (CEST)S. Maria Di Leuca, Italy (16360): wind direction: 16.09.2018 23:00:00 - 22.09.2018 23:00:00 (CEST)S. Maria Di Leuca, Italy (16360): reduced air pressure: 16.09.2018 23:00:00 - 22.09.2018 23:00:00 (CEST)S. Maria Di Leuca, Italy (16360): visibility: 16.09.2018 23:00:00 - 22.09.2018 23:00:00 (CEST)S. Maria Di Leuca, Italy (16360): sunshine duration: 16.09.2018 23:00:00 - 22.09.2018 23:00:00 (CEST)
Date & Time tt [°C] td [°C] ff [km/h] ff [kn] dd ppp [hPa] vv [km] sd [min]
22.09.2018 23:00:00 23,8 21,9 5 3 W 1018,2 10 -
22.09.2018 22:00:00 23,8 21,9 4 2 W 1018,1 10 -
22.09.2018 21:00:00 24,0 21,9 2 1 W 1018,1 10 -
22.09.2018 20:00:00 24,2 21,9 4 2 W 1018,1 10 -
22.09.2018 19:00:00 24,2 22,3 5 3 SSW 1016,9 15 0
22.09.2018 18:00:00 24,6 22,5 8 4 SSW 1016,9 15 60
22.09.2018 17:00:00 24,8 22,1 9 5 SSW 1016,9 15 60
22.09.2018 16:00:00 25,0 21,3 11 6 S 1017,0 15 60
22.09.2018 15:00:00 25,2 21,5 11 6 SSE 1017,2 15 60
22.09.2018 14:00:00 25,2 21,5 11 6 SE 1017,3 15 60
22.09.2018 13:00:00 25,0 20,3 9 5 S 1017,4 15 60
22.09.2018 12:00:00 25,0 20,5 9 5 S 1017,4 15 60
22.09.2018 11:00:00 24,8 19,0 9 5 E 1017,1 15 60
22.09.2018 10:00:00 24,0 20,3 9 5 E 1017,1 15 60
22.09.2018 09:00:00 24,0 20,3 4 2 ESE 1016,7 15 60
22.09.2018 08:00:00 23,0 20,5 5 3 SSW 1016,1 15 36
22.09.2018 07:00:00 23,2 20,7 5 3 S 1015,8 10 0
22.09.2018 06:00:00 23,8 21,1 0 0 N 1016,1 10 -
22.09.2018 05:00:00 23,8 21,1 4 2 E 1016,1 10 -
22.09.2018 04:00:00 23,8 21,1 4 2 E 1016,1 10 -
22.09.2018 03:00:00 23,8 21,1 0 0 N 1016,1 10 -
22.09.2018 02:00:00 24,0 21,5 5 3 N 1016,1 10 -
22.09.2018 01:00:00 24,0 21,5 5 3 NNE 1016,1 10 -
22.09.2018 00:00:00 24,0 21,5 4 2 NNE 1016,0 10 -
21.09.2018 23:00:00 24,0 21,5 8 4 SW 1015,5 10 -
21.09.2018 22:00:00 24,0 21,9 8 4 SW 1015,5 10 -
21.09.2018 21:00:00 24,0 21,9 8 4 SW 1015,4 10 -
21.09.2018 20:00:00 24,0 21,9 8 4 SSW 1015,3 10 -
21.09.2018 19:00:00 24,0 21,9 8 4 SSW 1015,2 12 6
21.09.2018 18:00:00 24,8 21,9 9 5 SSW 1015,2 12 60
21.09.2018 17:00:00 25,0 21,5 9 5 S 1015,5 12 60
21.09.2018 16:00:00 24,8 21,5 11 6 SSW 1015,8 12 60
21.09.2018 15:00:00 25,0 21,3 9 5 S 1015,8 12 60
21.09.2018 14:00:00 25,0 22,3 13 7 S 1016,0 12 60
21.09.2018 13:00:00 25,0 21,9 11 6 SSE 1016,1 12 60
21.09.2018 12:00:00 25,0 21,3 9 5 SSE 1016,0 12 60
21.09.2018 11:00:00 25,0 21,3 9 5 SE 1016,0 10 60
21.09.2018 10:00:00 24,4 20,7 8 4 ESE 1016,0 10 60
21.09.2018 09:00:00 23,0 19,8 8 4 E 1015,5 10 60
21.09.2018 08:00:00 21,8 17,6 8 4 NE 1015,4 10 0
21.09.2018 07:00:00 20,6 16,4 15 8 NE 1015,4 10 0
21.09.2018 06:00:00 20,8 17,0 13 7 NNE 1015,6 10 -
21.09.2018 05:00:00 21,0 17,4 13 7 N 1015,8 10 -
21.09.2018 04:00:00 21,8 18,4 8 4 NNW 1015,8 10 -
21.09.2018 03:00:00 21,8 18,4 9 5 N 1015,9 10 -
21.09.2018 02:00:00 21,8 18,4 15 8 NNE 1016,2 10 -
21.09.2018 01:00:00 22,0 18,8 16 9 NNE 1016,2 10 -
21.09.2018 00:00:00 22,6 20,1 15 8 NNE 1016,1 10 -
20.09.2018 23:00:00 22,8 20,3 9 5 NNE 1016,1 10 -
20.09.2018 22:00:00 23,0 20,7 11 6 NNE 1016,0 10 -
20.09.2018 21:00:00 23,8 21,7 8 4 NW 1015,9 10 -
20.09.2018 20:00:00 24,0 21,9 4 2 N 1015,4 10 -
20.09.2018 19:00:00 24,4 21,9 9 5 NE 1015,4 10 0
20.09.2018 18:00:00 24,6 21,1 11 6 ENE 1015,6 10 36
20.09.2018 17:00:00 25,2 21,1 15 8 ENE 1015,6 10 60
20.09.2018 16:00:00 25,8 19,9 15 8 ENE 1015,9 10 60
20.09.2018 15:00:00 25,8 19,7 21 11 ENE 1016,0 10 60
20.09.2018 14:00:00 26,0 20,1 16 9 ENE 1016,5 10 60
20.09.2018 13:00:00 25,0 20,3 18 10 ENE 1016,9 10 60
20.09.2018 12:00:00 25,0 20,3 18 10 ENE 1017,0 10 60
20.09.2018 11:00:00 25,2 20,0 18 10 NE 1017,2 10 60
20.09.2018 10:00:00 23,6 20,9 21 11 NE 1017,1 10 60
20.09.2018 09:00:00 23,2 20,5 15 8 NE 1017,0 10 60
20.09.2018 08:00:00 22,6 19,8 11 6 NNE 1016,8 10 30
20.09.2018 07:00:00 22,0 19,5 15 8 NNE 1016,8 15 0
20.09.2018 06:00:00 21,8 20,1 15 8 N 1016,8 12 -
20.09.2018 05:00:00 22,2 20,1 13 7 NNE 1017,1 12 -
20.09.2018 04:00:00 22,4 20,5 15 8 N 1017,1 12 -
20.09.2018 03:00:00 23,0 19,0 13 7 N 1017,5 12 -
20.09.2018 02:00:00 23,4 21,3 11 6 NNE 1017,9 12 -
20.09.2018 01:00:00 23,4 20,9 9 5 N 1017,9 12 -
20.09.2018 00:00:00 24,0 20,3 11 6 NNE 1017,9 12 -
19.09.2018 23:00:00 24,2 21,5 9 5 NNW 1017,9 10 -
19.09.2018 22:00:00 24,2 21,5 8 4 NNE 1017,9 12 -
19.09.2018 21:00:00 25,0 21,3 11 6 WNW 1017,7 12 -
19.09.2018 20:00:00 25,0 21,3 9 5 SW 1017,5 12 -
19.09.2018 19:00:00 25,0 21,1 8 4 W 1017,5 15 0
19.09.2018 18:00:00 25,8 20,4 9 5 WSW 1017,1 15 60
19.09.2018 17:00:00 26,8 15,2 8 4 S 1017,0 15 60
19.09.2018 16:00:00 26,6 17,4 8 4 S 1017,1 15 60
19.09.2018 15:00:00 27,0 16,9 9 5 S 1017,7 15 60
19.09.2018 14:00:00 27,4 16,1 11 6 E 1017,9 15 60
19.09.2018 13:00:00 27,6 16,9 11 6 E 1018,3 15 60
19.09.2018 12:00:00 27,4 16,1 11 6 E 1018,6 15 60
19.09.2018 11:00:00 26,8 17,6 9 5 NE 1018,6 15 60
19.09.2018 10:00:00 26,4 12,5 11 6 ENE 1018,3 15 60
19.09.2018 09:00:00 24,8 15,7 8 4 NNE 1018,4 15 60
19.09.2018 08:00:00 23,0 14,6 9 5 N 1018,4 15 42
19.09.2018 07:00:00 23,4 14,7 8 4 N 1018,2 15 0
19.09.2018 06:00:00 23,6 15,4 8 4 N 1018,0 10 -
19.09.2018 05:00:00 23,0 18,5 9 5 NNE 1018,4 10 -
19.09.2018 04:00:00 23,4 19,4 8 4 NNE 1018,4 10 -
19.09.2018 03:00:00 23,8 21,3 5 3 NNE 1018,8 10 -
19.09.2018 02:00:00 24,0 21,5 8 4 N 1018,8 10 -
19.09.2018 01:00:00 25,0 22,7 5 3 NW 1018,8 10 -
19.09.2018 00:00:00 25,2 22,9 5 3 NW 1018,8 10 -
18.09.2018 23:00:00 25,0 22,9 9 5 N 1018,6 10 -
18.09.2018 22:00:00 25,0 22,9 8 4 N 1018,4 10 -
18.09.2018 21:00:00 25,0 22,9 4 2 N 1018,3 10 -
18.09.2018 20:00:00 25,0 22,9 4 2 N 1018,0 10 -
18.09.2018 19:00:00 25,0 23,1 5 3 ENE 1018,0 12 0
18.09.2018 18:00:00 25,8 23,3 9 5 ENE 1018,0 15 60
18.09.2018 17:00:00 26,2 22,5 9 5 W 1018,2 10 60
18.09.2018 16:00:00 26,4 21,4 8 4 WSW 1018,7 15 60
18.09.2018 15:00:00 26,4 22,0 11 6 WSW 1018,9 15 60
18.09.2018 14:00:00 26,4 20,7 11 6 WSW 1019,1 15 60
18.09.2018 13:00:00 27,4 17,3 8 4 NNE 1019,2 15 60
18.09.2018 12:00:00 27,0 16,3 8 4 ENE 1019,6 15 60
18.09.2018 11:00:00 25,4 20,4 11 6 ENE 1019,7 15 60
18.09.2018 10:00:00 25,0 19,4 13 7 ENE 1019,2 15 60
18.09.2018 09:00:00 23,4 20,5 11 6 NE 1019,1 12 36
18.09.2018 08:00:00 22,0 18,6 11 6 NNE 1019,1 12 30
18.09.2018 07:00:00 21,4 19,0 13 7 N 1019,1 10 0
18.09.2018 06:00:00 22,2 19,9 15 8 N 1019,1 10 -
18.09.2018 05:00:00 23,4 21,3 11 6 NE 1018,9 10 -
18.09.2018 04:00:00 23,2 20,9 13 7 NE 1018,9 10 -
18.09.2018 03:00:00 23,2 21,1 13 7 NE 1019,1 10 -
18.09.2018 02:00:00 23,0 20,7 11 6 NE 1019,1 10 -
18.09.2018 01:00:00 23,0 21,1 11 6 N 1019,1 10 -
18.09.2018 00:00:00 23,2 21,1 13 7 N 1019,1 10 -
17.09.2018 23:00:00 24,0 18,2 13 7 NNE 1019,0 10 -
17.09.2018 22:00:00 25,0 16,7 9 5 N 1019,0 10 -
17.09.2018 21:00:00 - - - - - - - -
17.09.2018 20:00:00 26,0 17,6 15 8 NNE 1018,5 10 -
17.09.2018 19:00:00 26,8 18,4 18 10 NE 1018,5 15 0
17.09.2018 18:00:00 27,6 13,5 21 11 ENE 1018,7 15 60
17.09.2018 17:00:00 28,0 13,9 18 10 ENE 1018,8 15 60
17.09.2018 16:00:00 28,0 13,9 22 12 NE 1019,0 15 60
17.09.2018 15:00:00 28,0 17,2 21 11 ENE 1019,3 15 60
17.09.2018 14:00:00 28,0 19,5 22 12 ENE 1019,8 15 60
17.09.2018 13:00:00 28,0 20,8 21 11 ENE 1019,9 15 60
17.09.2018 12:00:00 28,0 18,1 16 9 ENE 1019,9 15 60
17.09.2018 11:00:00 28,0 18,1 15 8 NNE 1019,9 10 60
17.09.2018 10:00:00 25,0 18,9 15 8 NNE 1019,8 12 60
17.09.2018 09:00:00 23,6 20,3 21 11 N 1019,5 10 60
17.09.2018 08:00:00 23,0 19,8 22 12 N 1019,5 10 30
17.09.2018 07:00:00 23,0 19,6 21 11 N 1019,0 10 0
17.09.2018 06:00:00 23,4 19,4 18 10 N 1019,1 10 -
17.09.2018 05:00:00 23,4 19,4 18 10 N 1019,0 10 -
17.09.2018 04:00:00 23,4 17,8 18 10 N 1019,1 10 -
17.09.2018 03:00:00 23,4 17,8 21 11 N 1019,1 10 -
17.09.2018 02:00:00 23,4 17,8 21 11 N 1019,1 10 -
17.09.2018 01:00:00 23,8 20,1 18 10 N 1019,0 10 -
17.09.2018 00:00:00 23,8 20,1 21 11 NNE 1019,0 10 -
16.09.2018 23:00:00 23,8 20,1 22 12 NNE 1019,0 10 -

tt = temperature
td = dewpoint
ff = wind speed
dd = wind direction
ppp = reduced air pressure
vv = visibility
sd = sunshine duration

Next stations